Weather in Giblitsy

Russia / Ryazan Oblast     54°57′49″N   41°05′26″E
temp.,
°C
wind,
m/s
gust,
m/s
humid.,
%
clouds,
%
prec.,
mm/h
press.,
hPa
HPBL,
m
8 march, mon
mon800:00−8w389383 0.0 994161
03:00−8w4119292 0.1 997367
06:00−10sw399466 0.0 997314
09:00−7sw489482 0.4 996576
12:00−5w5889100 1.6 997960
15:00−4nw697497 2.3 10001406
18:00−9nw238717 0.1 100426
21:00−11nw239337 0.1 100723
9 march, tue
tue900:00−14wnw23973 0.0 100822
03:00−16nw239742 0.0 101027
06:00−15nw249783 0.1 1011115
09:00−13nnw359489 0.1 1013326
12:00−11nnw3588100 0.0 1014627
15:00−11nnw4587100 0.1 1015740
18:00−14nnw3892100 0.1 1016377
21:00−19nnw389565 0.1 1019191
10 march, wed
wed1000:00−22nw369836 0.0 1020115
03:00−24nw379818 0.0 1022142
06:00−26nnw37980 0.0 1024143
09:00−23nnw359410 0.0 1026256
12:00−18nnw358748 0.0 1026506
15:00−15nnw358136 0.0 1026685
18:00−18nnw239115 0.0 102732
21:00−22nnw23947 0.0 102922
11 march, thu
thu1100:00−24nnw22940 0.0 103020
03:00−25nw22950 0.0 103120
06:00−25nw22960 0.0 103119
09:00−20wnw23930 0.0 1032184
12:00−13wnw23790 0.0 1032408
15:00−10wnw23810 0.0 1031526
18:00−14w22890 0.0 103220
21:00−17wsw22920 0.0 103320
12 march, fri
fri1200:00−19sw22940 0.0 103420
03:00−21ssw23900 0.0 103321
06:00−22s33920 0.0 103377
09:00−18s47850 0.0 1032256
12:00−12s510780 0.0 1031476
15:00−10s6117450 0.0 1029598
18:00−12s61477100 0.0 1026499
21:00−13s61681100 0.0 1024535